GEFSNGP_500_meanwind_210.txt.gz
Wind_Speed
31 30 31 29 29 29 31 31 32 31 30 28 27 25 24 23 22 20 18 18 17 18 16 14 12 11 11 11 12 12 12 11 11 11 11 11 11 11 11 10 10 10 9 10
33 31 32 31 30 29 30 32 32 32 33 31 30 29 26 25 23 21 20 19 19 18 16 15 14 12 12 11 12 12 12 13 12 12 12 12 12 12 12 12 12 12 12 11
33 33 33 33 31 31 31 30 31 33 32 31 30 29 28 25 24 23 22 21 20 19 17 16 16 15 13 13 12 13 13 14 14 14 13 13 13 13 13 13 12 12 12 12
32 32 35 32 31 32 31 31 31 33 34 32 29 28 28 26 24 23 23 22 21 19 18 17 16 16 15 14 13 14 14 14 14 15 14 13 14 15 15 14 13 13 13 13
34 34 33 33 33 33 32 32 32 32 33 32 30 30 29 27 25 24 24 22 21 20 19 19 18 17 17 15 15 15 15 15 15 15 15 15 15 15 15 14 13 13 13 14
35 36 36 34 34 34 34 35 34 33 33 31 31 30 28 28 27 25 24 22 21 21 21 20 19 19 19 17 17 17 17 17 17 16 16 16 16 15 15 14 14 14 14 14
36 37 37 35 35 35 36 36 34 34 34 33 32 31 29 28 28 26 24 23 22 22 22 21 20 20 20 19 19 19 18 18 18 17 17 16 16 15 15 15 15 15 15 15
36 38 37 35 35 37 36 35 35 35 35 35 35 33 32 31 30 28 26 24 23 23 22 21 21 21 21 21 21 20 20 20 19 18 18 18 16 16 16 16 16 16 16 15
37 37 35 35 36 36 36 35 35 36 36 36 36 34 33 32 31 29 27 26 26 24 24 23 22 22 22 22 21 21 21 20 19 19 19 18 18 17 16 17 16 16 16 16
36 36 36 35 35 35 35 35 34 34 35 35 35 34 34 33 32 30 29 29 27 26 24 23 23 23 22 22 22 22 21 20 20 20 19 18 18 18 18 18 18 18 18 18
37 36 35 35 34 35 35 35 35 35 35 35 34 34 33 33 32 31 31 30 28 27 25 24 23 23 23 22 22 22 22 22 21 20 20 19 19 19 20 19 19 19 20 20
36 35 34 33 34 34 35 35 36 36 35 34 34 34 34 33 32 31 30 29 28 27 26 25 25 24 24 23 22 22 22 22 22 21 21 21 20 21 21 21 20 20 20 20
34 34 33 33 34 34 34 34 34 34 34 34 33 33 33 33 32 31 29 27 28 27 27 26 26 25 24 23 23 22 22 22 22 23 22 22 22 22 22 21 21 21 21 21
32 32 32 32 33 32 33 32 32 32 33 32 32 33 32 32 31 29 28 27 26 26 26 26 26 25 24 23 23 23 23 23 23 23 23 23 23 23 23 22 22 23 22 22
31 32 32 31 32 32 31 31 31 31 32 33 32 32 32 31 30 29 28 27 26 26 26 26 25 25 24 24 23 23 23 23 23 23 23 23 23 22 23 22 23 23 23 23
30 29 30 30 30 30 29 29 30 30 31 32 32 33 32 32 31 28 27 27 26 26 25 25 24 24 24 24 23 23 23 23 23 23 23 23 23 23 23 23 23 23 24 24
30 29 29 29 30 30 29 29 29 30 30 32 32 32 32 30 29 28 27 27 26 26 26 25 24 24 24 24 24 24 24 24 23 23 23 24 24 24 24 24 24 24 25 25
29 29 29 29 29 29 29 28 27 28 29 30 31 31 31 30 30 29 28 27 27 26 25 24 24 24 24 24 24 24 24 24 24 24 23 23 24 24 24 25 25 25 25 25
28 28 28 28 28 29 28 27 27 26 26 27 27 27 27 27 28 28 26 26 27 25 24 24 23 23 23 23 24 24 24 24 23 23 22 23 23 24 24 23 23 23 24 24
28 28 29 29 29 29 27 26 25 26 24 25 25 26 26 25 26 26 26 25 26 25 24 24 23 23 22 23 23 23 24 24 22 22 21 22 22 22 23 22 22 22 23 24
24 25 26 26 27 27 25 25 25 25 24 24 24 24 24 25 25 25 25 25 24 24 24 24 23 23 22 22 22 22 22 22 22 21 21 21 21 21 21 21 22 23 24 25
22 23 23 24 24 24 24 23 23 23 23 24 24 24 24 24 24 24 24 24 24 24 23 23 22 21 21 21 21 21 21 21 21 20 20 20 20 21 22 22 23 24 25 25
21 21 21 22 22 22 22 22 23 23 23 23 23 24 23 23 23 23 23 23 23 23 22 22 22 22 21 20 20 20 21 21 20 20 20 20 21 21 22 22 23 24 25 26
20 20 21 21 21 20 20 20 21 21 21 21 21 21 21 21 21 22 22 22 21 21 21 21 21 21 21 21 21 21 21 21 21 21 21 21 22 22 23 24 25 25 26 26
18 18 19 19 20 20 20 20 20 20 20 19 19 20 20 20 20 20 20 21 21 20 20 20 20 21 21 21 21 22 22 22 22 23 23 23 23 23 24 24 25 25 25 25
18 18 18 18 19 19 19 18 18 18 17 17 17 18 18 18 18 19 19 19 20 20 20 19 20 21 21 22 22 22 22 22 22 22 22 23 23 24 24 24 25 25 25 24
17 18 18 17 17 17 17 17 18 17 17 17 17 18 18 18 18 18 18 19 19 19 20 20 20 20 20 21 21 21 22 21 21 22 23 23 24 24 25 26 25 25 24 24

GEFSNGP_500_meanwind_216.txt.gz
Wind_Speed
30 30 29 29 29 29 30 29 29 28 27 26 25 24 23 22 21 19 18 17 16 15 15 14 14 15 14 14 14 14 14 14 14 13 14 14 14 13 13 13 13 12 12 12
30 29 29 29 29 29 29 29 28 27 27 26 25 24 23 23 22 21 20 19 18 17 16 16 17 17 16 16 15 14 14 14 15 16 16 16 16 15 15 15 15 14 14 13
31 30 30 31 30 29 29 29 28 27 26 26 26 25 24 23 24 23 21 20 20 19 18 18 18 18 18 17 16 15 15 15 15 16 16 17 17 16 16 16 16 16 15 15
31 31 32 31 30 30 30 30 29 28 26 26 25 24 24 23 23 23 22 21 21 20 19 18 18 18 18 18 17 16 16 16 16 16 16 16 16 17 17 17 18 17 16 16
33 33 32 32 31 30 30 30 29 27 26 25 24 24 24 23 23 23 22 22 22 22 21 19 19 19 19 19 18 17 17 17 17 16 16 16 16 17 17 17 17 17 16 16
33 34 34 32 31 31 30 31 29 28 27 26 26 25 24 24 24 24 24 23 23 23 22 21 20 20 19 19 18 18 18 18 18 17 17 17 17 17 17 17 17 17 17 17
34 34 34 33 32 31 31 30 29 29 28 28 27 27 26 26 25 25 26 24 24 24 23 22 21 21 20 20 20 19 19 20 20 19 19 19 19 19 18 18 18 17 17 17
34 34 34 32 32 32 31 30 30 29 29 28 28 28 28 28 27 27 26 25 24 23 23 22 22 22 21 21 21 21 21 21 21 21 20 20 20 19 19 18 18 18 18 19
36 35 33 32 32 32 31 31 30 30 30 30 30 29 28 28 28 28 27 26 25 24 24 23 24 23 22 21 21 21 21 21 21 21 22 22 22 22 21 20 20 20 20 20
37 36 34 32 32 32 32 31 30 30 31 31 31 30 30 30 29 29 28 28 27 26 25 24 24 24 23 23 22 21 22 22 23 23 23 23 22 22 22 21 21 21 20 21
36 36 35 34 33 32 33 32 31 30 31 32 31 31 31 31 31 31 30 30 29 29 28 27 26 26 25 24 23 23 23 23 24 24 24 23 22 22 22 22 22 21 21 22
35 35 35 34 34 33 33 33 32 31 31 32 32 31 31 31 31 32 31 30 30 29 29 28 27 26 26 26 25 24 24 24 24 24 23 23 22 22 22 23 23 22 22 22
34 35 35 35 34 34 34 33 33 33 32 32 32 32 31 31 31 32 31 30 30 29 28 28 27 27 27 26 26 25 25 25 25 24 24 23 23 23 23 23 23 22 22 23
33 34 34 34 34 34 34 34 34 34 33 34 33 32 32 32 31 30 30 29 28 27 27 27 27 26 26 26 26 25 25 25 24 24 23 23 23 23 23 23 23 23 23 23
31 32 32 33 33 33 33 34 35 35 35 35 34 33 33 31 30 29 28 27 27 26 26 27 27 26 26 26 26 26 26 25 25 24 23 23 24 24 23 23 24 24 24 25
31 31 32 32 32 32 32 33 33 34 34 34 33 33 32 31 30 29 29 28 27 27 26 27 27 27 26 26 25 25 25 25 25 25 24 24 24 24 24 24 24 25 25 25
31 31 31 31 30 31 31 31 32 32 31 31 31 31 31 31 31 30 29 29 28 28 28 27 26 26 26 26 25 24 24 23 24 25 25 24 24 25 24 24 24 25 25 26
29 30 30 30 30 30 29 29 29 30 29 29 29 30 30 31 31 31 31 31 30 29 29 28 27 26 26 26 25 24 24 24 24 24 24 24 24 24 24 25 25 25 25 26
28 28 28 29 30 30 30 28 28 28 29 29 29 28 28 29 29 30 29 30 30 29 28 27 26 26 26 26 26 25 24 24 24 23 24 24 24 24 25 25 25 26 26 27
27 27 27 28 28 28 28 28 28 28 28 28 28 27 28 28 28 29 29 30 30 29 28 28 28 27 27 26 25 24 24 24 23 23 24 24 24 24 25 25 25 25 26 26
26 26 26 26 27 27 27 27 27 27 28 28 28 27 28 28 28 29 29 29 30 30 30 29 28 28 27 27 26 24 23 23 23 24 24 24 24 24 25 25 25 25 25 25
23 24 25 25 25 25 25 26 26 27 27 27 27 27 27 27 27 27 27 27 27 29 29 29 28 28 28 27 26 24 24 23 23 23 23 24 24 24 24 25 25 25 25 26
22 22 22 23 24 24 25 25 25 25 25 25 25 25 25 25 25 25 25 25 25 26 27 27 27 27 27 27 26 25 24 23 24 24 24 24 25 25 25 25 25 26 26 26
20 21 20 20 22 24 23 23 23 23 23 23 22 22 22 23 23 23 24 24 24 24 25 25 25 25 25 25 24 24 24 24 24 24 24 24 25 25 26 26 26 26 27 27
19 20 20 19 20 21 21 22 22 21 21 21 21 21 21 21 22 22 22 22 23 22 23 23 23 23 24 24 23 23 23 23 23 24 24 25 25 26 26 26 26 26 27 27
16 17 17 17 19 20 20 19 19 19 19 19 19 19 19 19 19 20 19 20 20 21 21 21 22 23 23 23 22 22 22 23 23 23 23 24 24 25 25 25 25 25 26 26
15 16 16 16 16 18 18 18 18 18 18 18 18 17 17 17 17 18 18 18 19 19 19 20 21 22 22 22 22 22 22 22 23 23 23 24 24 24 23 24 25 25 26 27

GEFSNGP_500_meanwind_222.txt.gz
Wind_Speed
32 31 30 29 29 29 28 27 25 23 23 23 23 23 21 20 20 19 18 18 17 16 16 16 16 16 16 15 15 15 15 15 15 14 13 13 12 12 12 12 12 12 12 13
31 31 31 30 30 29 28 27 26 25 23 23 23 23 22 21 20 20 20 20 19 18 17 16 16 17 17 17 17 16 16 15 15 15 14 14 14 14 14 13 13 13 13 13
29 30 30 31 30 29 28 27 26 25 24 24 23 22 22 22 22 21 20 20 19 19 18 18 18 17 18 18 18 18 17 17 17 16 16 15 15 15 15 15 15 14 15 15
28 29 29 30 30 29 28 27 26 26 25 25 24 24 23 23 23 22 21 21 21 20 20 19 19 19 19 19 19 19 19 18 18 17 17 16 16 16 16 16 16 16 16 16
29 29 30 31 30 28 28 27 27 26 26 25 24 24 24 24 24 24 23 22 22 21 21 20 20 20 20 20 20 20 20 19 19 19 18 17 17 17 17 16 16 17 17 17
30 29 29 30 29 28 28 28 27 26 25 25 24 24 24 24 24 24 23 23 22 22 22 22 22 22 22 22 21 20 20 20 20 19 19 18 18 18 18 17 17 17 17 17
30 29 29 29 29 28 28 28 27 26 26 25 25 25 24 24 25 25 23 22 22 22 23 23 23 23 23 22 21 21 21 21 20 20 20 20 19 19 18 18 18 18 18 19
29 28 29 30 29 29 28 27 27 27 26 26 26 26 25 24 24 24 23 23 23 24 24 24 24 24 24 23 22 22 22 22 21 21 21 21 20 19 19 19 19 19 19 20
31 31 30 29 28 28 28 28 28 27 27 27 27 26 26 25 25 24 24 24 24 24 24 24 24 24 24 23 23 23 23 23 22 22 22 22 21 20 20 20 20 20 21 21
32 32 31 30 30 29 29 29 28 28 28 27 27 27 27 27 27 26 26 25 25 24 24 25 24 23 23 23 23 23 23 23 23 23 22 22 22 21 22 22 22 22 22 22
32 32 32 32 31 31 30 30 30 29 29 28 28 27 27 28 28 28 27 26 25 25 26 26 26 25 26 25 25 24 23 23 23 23 22 22 22 22 23 23 23 23 23 23
33 32 32 32 32 32 32 31 31 31 31 30 30 29 29 29 28 29 29 28 27 27 27 26 27 27 27 27 25 24 24 24 24 23 23 23 23 24 24 24 24 24 24 24
32 32 32 32 32 32 32 32 31 31 32 32 31 31 31 30 30 29 29 30 29 28 28 28 28 28 28 28 27 26 25 25 25 24 24 24 24 24 24 24 24 24 24 24
32 32 32 32 32 32 32 33 32 32 32 32 32 32 32 31 31 31 31 30 30 30 30 30 29 29 28 28 27 27 27 26 26 25 25 25 25 24 24 24 24 24 24 25
31 31 31 31 32 32 32 32 32 32 32 32 32 33 33 33 32 32 32 32 32 32 32 32 30 29 28 28 27 27 27 26 26 25 25 25 25 25 25 24 24 25 25 26
31 31 31 32 32 32 32 32 33 33 33 33 33 33 34 34 34 33 33 33 33 33 32 32 31 29 29 28 28 27 27 26 26 25 25 25 25 25 25 24 24 25 25 25
31 31 31 32 32 32 32 32 33 33 33 33 33 33 34 34 34 33 33 33 34 33 32 31 30 30 29 28 28 28 27 27 26 26 25 25 25 25 25 25 24 24 25 25
30 31 31 31 32 32 32 32 32 32 33 32 32 32 33 34 34 34 33 34 34 33 32 32 31 30 30 29 29 29 28 28 27 26 26 26 26 26 26 25 25 25 26 26
29 30 30 30 31 32 32 32 32 33 33 33 33 33 33 33 34 34 33 33 33 33 33 32 32 32 31 30 29 29 28 28 28 27 27 26 26 26 26 26 26 26 26 26
30 29 29 29 30 30 31 32 32 33 32 32 32 32 33 33 34 34 34 33 33 33 33 33 33 32 31 30 29 28 28 28 27 27 27 26 26 26 26 27 27 27 27 27
27 28 28 27 27 28 28 29 29 30 30 29 30 30 31 32 32 32 32 32 31 32 32 32 32 32 31 30 30 29 29 28 27 26 26 26 26 26 26 26 27 27 27 27
25 26 26 26 26 26 27 27 27 28 28 28 29 29 29 30 30 30 31 31 30 31 32 32 31 31 31 30 29 28 28 27 27 26 26 26 26 26 26 26 26 27 27 27
24 24 24 25 25 26 26 26 26 27 27 27 28 28 28 27 27 28 28 28 29 30 30 30 30 29 30 30 29 29 28 27 26 26 26 26 26 26 26 26 27 27 27 27
23 24 24 24 25 25 26 26 26 27 27 26 27 27 27 27 27 27 27 27 27 28 28 28 28 28 28 28 28 28 27 27 26 26 26 26 26 26 26 27 27 28 28 29
22 22 22 23 24 24 24 24 25 26 26 26 26 26 26 26 26 26 26 27 27 27 27 26 26 26 26 26 26 26 26 25 25 25 26 26 26 27 27 27 28 28 28 29
20 21 21 21 22 23 23 23 23 24 24 24 24 24 25 25 26 26 25 26 26 26 26 25 25 24 24 24 24 24 24 25 25 25 26 26 27 27 27 27 28 28 29 29
19 20 20 20 20 20 20 20 21 21 22 22 23 24 24 24 24 24 23 23 23 23 23 23 23 23 23 23 23 23 23 24 24 25 25 26 26 27 27 28 28 28 29 29

GEFSNGP_500_meanwind_228.txt.gz
Wind_Speed
32 28 24 24 24 25 27 27 26 23 24 27 29 28 25 25 24 23 23 22 21 19 18 17 16 16 16 16 16 17 16 15 15 15 15 14 14 14 14 13 13 14 13 13
33 30 28 26 25 24 25 26 26 26 26 28 30 28 26 26 25 25 24 23 22 21 19 18 18 17 17 17 17 17 17 16 16 16 16 15 15 16 15 15 15 15 15 15
34 32 30 30 28 26 26 25 26 27 29 30 30 28 26 26 26 25 24 23 23 22 21 20 19 18 18 18 19 18 18 17 17 18 17 17 16 17 17 17 17 16 16 16
32 30 31 31 28 28 27 28 29 28 29 28 30 29 28 27 26 25 24 23 22 22 21 20 20 20 19 19 19 20 19 19 19 19 18 18 18 18 18 18 18 18 17 17
32 30 31 30 30 29 29 30 30 29 30 31 28 27 28 27 26 27 26 25 23 21 20 21 21 20 20 21 21 21 21 21 21 20 19 19 19 19 20 19 19 19 19 19
33 31 30 30 29 29 29 31 30 31 31 31 29 28 28 27 27 27 27 26 25 25 24 23 23 22 22 23 23 22 22 22 21 21 21 20 20 20 21 21 20 20 20 19
33 31 29 29 29 30 31 31 31 31 31 32 31 30 31 29 28 27 28 28 28 26 25 25 25 25 25 24 24 23 23 23 22 22 21 21 21 22 21 22 21 20 20 20
34 32 32 32 31 31 31 32 31 30 31 32 31 31 31 30 28 28 28 28 28 27 27 26 26 26 26 25 25 24 24 24 23 23 23 23 23 22 22 21 21 21 21 21
34 34 34 34 33 32 31 30 31 31 31 31 31 31 31 32 30 29 28 28 28 28 28 27 27 26 26 26 26 25 24 24 23 24 23 23 23 22 22 22 22 22 22 21
35 38 36 35 34 32 32 31 30 31 32 31 30 30 31 31 31 30 30 30 30 30 29 28 27 27 26 26 26 25 25 25 24 24 23 23 23 23 22 22 23 23 22 22
37 37 36 37 35 34 34 34 33 33 32 31 31 30 29 29 30 30 31 30 29 29 29 28 28 27 27 27 27 27 26 25 25 24 24 24 24 23 24 24 24 24 24 24
39 38 38 38 37 35 35 35 34 34 33 33 33 32 32 31 31 32 32 31 30 29 29 29 28 26 27 27 27 27 27 27 26 26 25 25 25 25 25 24 24 25 25 25
36 36 37 37 37 38 38 37 36 35 35 35 34 33 33 32 32 32 32 32 32 31 30 30 28 27 28 28 28 29 29 29 28 28 27 26 26 26 25 25 25 25 25 25
35 35 34 34 35 36 37 37 37 37 36 35 35 34 34 33 33 32 32 32 32 32 32 32 31 30 29 29 29 30 30 30 30 29 28 28 27 27 26 26 25 25 25 26
35 35 36 37 37 36 36 36 36 35 35 36 35 35 35 34 34 34 33 33 33 34 34 33 33 32 31 31 31 31 31 31 30 30 30 30 29 29 28 27 27 26 26 26
35 35 36 37 37 37 36 36 36 35 35 35 35 35 35 35 35 35 35 34 34 35 35 35 34 34 33 32 32 32 32 32 32 32 32 31 31 30 29 28 27 27 27 27
35 34 33 34 36 37 37 37 37 37 36 36 36 35 35 36 36 35 35 35 35 35 35 35 35 35 35 34 33 33 33 33 33 32 31 31 31 30 30 29 29 28 28 28
33 33 34 34 35 36 36 37 37 37 37 36 36 36 35 36 36 36 36 36 35 35 36 36 36 36 36 35 34 33 33 33 32 32 31 31 31 31 30 30 29 29 29 29
33 32 33 33 33 34 34 35 36 36 37 37 36 35 35 35 36 36 37 37 37 37 36 36 36 36 35 35 34 34 33 33 32 31 31 31 31 31 31 30 29 29 29 29
32 33 32 32 32 33 33 33 34 35 34 35 35 35 35 35 36 36 37 36 36 36 36 35 36 35 35 34 34 33 33 32 32 32 32 31 31 31 31 30 29 29 29 29
31 31 31 30 31 31 32 32 33 34 35 35 35 35 34 34 35 35 35 35 35 35 35 35 35 35 34 34 33 33 33 32 31 31 32 31 31 31 30 29 29 29 29 30
29 29 29 29 29 30 30 31 32 33 34 34 35 34 34 34 34 34 34 34 34 34 34 34 34 34 33 33 33 32 32 32 32 32 31 31 31 30 30 29 28 29 29 30
27 28 29 29 29 29 29 30 31 32 33 33 33 33 33 34 34 34 33 33 33 33 33 34 34 33 33 33 32 32 32 32 32 31 31 30 29 29 28 28 28 28 29 29
26 27 28 28 28 29 29 29 30 29 28 29 30 31 32 32 32 32 33 33 32 32 31 31 30 30 31 31 31 32 32 31 30 30 30 29 29 28 27 27 27 28 28 29
24 26 26 26 27 27 27 27 27 27 27 28 28 29 29 29 29 30 30 30 30 30 29 28 28 29 29 30 30 30 30 30 29 29 28 28 27 27 28 28 28 29 29 30
22 23 24 25 25 25 25 26 27 26 26 26 26 26 27 27 27 28 27 27 28 28 28 27 27 26 26 27 27 28 28 27 27 27 27 27 28 28 28 28 29 29 29 30
20 21 22 22 22 23 23 24 25 25 25 25 25 24 25 26 26 26 26 26 26 26 25 26 26 26 25 25 25 25 26 26 26 27 27 28 28 28 28 28 29 29 29 29

GEFSNGP_500_meanwind_234.txt.gz
Wind_Speed
34 33 31 31 31 31 30 30 30 29 29 27 26 26 26 24 22 22 21 21 20 18 17 16 16 16 15 14 13 12 12 11 12 11 12 12 12 11 11 12 11 12 12 12
35 33 33 32 31 31 30 29 29 29 29 29 28 29 28 26 25 24 22 23 22 20 20 18 18 17 15 15 12 11 12 12 13 13 13 13 13 13 13 13 13 13 13 13
35 34 33 34 32 31 30 29 29 29 29 30 30 30 30 28 27 25 23 23 23 22 21 21 20 18 17 14 13 13 13 13 14 14 14 14 13 14 14 14 14 14 13 14
36 35 36 34 32 32 31 30 29 28 27 28 30 30 30 30 29 28 26 24 23 22 21 22 21 20 18 17 16 14 13 14 14 15 15 15 15 15 15 15 15 15 15 15
37 37 38 35 32 33 33 32 30 30 29 29 29 30 29 30 30 29 26 25 24 23 23 23 22 21 20 19 18 17 16 16 16 16 16 16 16 16 17 17 17 17 17 17
38 38 39 36 33 33 33 34 33 32 32 31 30 30 30 30 30 29 27 26 26 26 25 25 24 23 22 20 19 18 17 17 17 18 18 18 18 18 18 18 18 18 17 18
38 39 38 36 35 34 35 34 32 32 32 33 32 31 30 30 29 29 27 26 26 27 27 25 24 24 23 22 21 20 20 19 19 19 19 19 19 19 18 18 18 18 18 19
38 39 38 35 35 36 35 34 33 32 32 32 32 31 30 30 29 29 28 27 26 26 25 25 25 24 23 22 21 21 21 21 21 21 21 21 21 20 20 20 20 19 19 19
37 37 36 36 35 35 35 34 34 32 32 31 31 30 30 30 29 29 28 27 27 26 25 25 24 24 23 23 23 22 22 23 23 22 22 22 22 22 22 21 21 21 21 21
37 37 37 37 37 36 35 35 34 32 32 31 29 29 29 30 30 29 29 29 28 27 26 26 25 24 24 23 23 23 24 24 24 23 23 23 23 23 23 23 23 22 21 21
38 38 37 37 36 35 34 34 35 34 33 33 33 32 32 31 30 30 29 29 28 27 26 26 25 25 24 24 25 25 25 24 24 24 24 25 25 24 23 23 22 22 22 23
38 37 37 36 35 34 34 34 34 35 34 32 33 32 32 32 31 31 30 29 28 27 26 25 25 25 26 26 26 25 25 25 25 26 26 27 26 25 24 24 24 24 24 24
36 36 36 36 36 35 34 34 33 34 33 31 31 32 33 33 32 32 32 31 30 29 27 26 26 26 27 27 27 27 27 26 27 27 28 28 26 26 26 25 26 26 26 26
36 37 37 36 36 36 35 35 35 34 34 34 34 34 34 34 34 33 33 31 30 28 28 28 28 29 29 28 28 27 27 28 28 29 28 28 27 27 27 27 27 27 27 27
38 38 38 38 37 37 37 37 36 35 34 33 34 34 35 35 34 33 32 31 30 30 30 30 30 30 30 29 29 28 29 29 30 30 29 29 29 29 28 27 27 27 27 28
36 36 37 38 37 37 37 37 36 34 35 35 35 35 35 35 34 33 32 31 31 32 32 32 31 32 31 31 30 30 30 30 31 30 30 30 29 28 27 27 27 27 28 28
36 35 33 34 35 36 36 36 37 37 36 36 35 35 33 33 33 33 33 33 33 33 33 33 32 32 32 32 32 32 31 31 31 31 31 30 29 29 28 28 29 29 29 29
34 34 35 35 34 35 36 36 35 37 38 37 36 35 34 34 35 34 34 34 34 34 34 34 34 34 33 33 33 33 33 33 31 31 30 29 29 29 29 29 29 29 30 29
32 32 33 34 33 33 34 35 35 35 35 35 36 36 35 35 36 36 35 35 35 35 34 34 35 35 34 33 33 32 32 31 30 30 31 31 31 31 31 31 31 30 31 30
31 31 31 31 31 33 33 33 34 34 35 34 34 35 35 35 35 36 36 36 35 35 35 35 34 33 33 33 32 31 31 31 31 31 31 31 31 32 32 31 31 31 31 30
28 29 30 31 31 33 33 32 33 33 33 33 33 33 34 34 34 34 35 34 34 33 33 33 32 32 32 32 32 31 31 31 31 31 31 31 31 31 31 30 30 30 30 29
25 26 27 28 29 30 31 31 30 30 31 32 32 32 32 33 33 33 33 33 32 32 32 32 31 31 31 32 31 31 31 31 31 31 31 30 30 30 30 29 29 28 28 29
23 25 26 27 27 28 28 28 29 29 30 31 31 31 31 31 32 33 32 32 32 32 32 33 33 33 33 33 32 31 32 31 30 30 30 30 29 29 28 28 28 28 28 29
21 22 23 24 25 26 26 27 27 27 27 28 29 30 31 31 32 32 32 32 33 34 33 33 33 33 33 32 32 31 31 31 30 31 30 29 29 28 28 28 28 28 28 29
19 20 20 21 22 24 25 26 26 26 26 26 27 28 28 29 29 30 30 31 31 31 31 31 31 31 31 30 30 30 29 29 28 28 28 28 28 27 28 28 28 28 29 28
18 18 19 20 21 23 24 24 24 24 25 26 26 26 27 27 28 28 28 28 28 28 28 28 28 28 28 28 28 28 27 27 26 27 27 27 27 28 28 28 27 27 27 27
16 17 18 19 20 21 22 23 24 24 24 25 25 25 25 25 25 25 25 25 25 25 25 25 26 26 26 25 25 25 25 26 26 26 26 26 26 26 26 26 27 27 27 28

GEFSNGP_500_meanwind_240.txt.gz
Wind_Speed
36 35 34 34 33 32 32 32 31 28 27 25 24 24 23 22 21 20 20 19 19 18 17 17 17 17 16 15 14 14 15 15 15 15 15 15 15 13 11 11 12 12 13 13
36 36 36 35 34 33 32 32 31 29 27 26 26 26 24 24 23 22 21 21 20 20 20 19 18 17 17 16 16 16 16 16 16 16 16 16 16 14 12 12 12 13 13 14
36 35 36 38 35 34 33 32 31 29 26 26 26 26 25 24 23 23 22 22 22 21 20 19 19 18 18 17 17 18 18 18 17 17 17 16 16 15 13 13 14 14 15 15
37 36 38 36 35 34 34 32 31 29 27 26 26 26 25 24 24 23 23 23 23 21 21 21 20 20 19 19 19 19 19 18 17 18 17 17 16 15 15 15 15 15 16 16
37 37 37 35 34 34 34 32 31 30 29 28 27 27 25 25 25 25 24 23 22 21 21 22 22 21 21 21 20 20 20 20 19 19 19 18 17 16 16 16 17 17 17 17
39 38 37 34 33 33 33 33 31 30 29 28 27 27 25 24 25 24 24 24 23 21 21 22 21 22 22 21 21 20 21 21 21 20 19 19 18 18 19 19 19 18 18 18
39 38 36 33 33 33 34 32 30 30 29 28 28 27 25 25 25 25 24 23 23 23 22 22 21 21 21 21 22 21 21 21 21 20 20 19 19 19 20 20 20 20 20 20
39 38 37 34 33 33 33 32 31 30 29 29 29 28 27 26 26 25 24 24 24 24 24 23 22 22 22 22 22 22 22 21 22 22 21 22 22 21 21 21 22 22 22 22
39 38 37 35 34 34 34 33 32 31 30 30 30 30 29 28 27 27 26 26 26 26 26 25 25 23 23 23 23 24 23 24 24 23 23 22 22 22 22 22 23 23 23 23
38 38 37 35 34 34 35 34 32 32 31 31 31 31 31 30 30 30 29 28 27 27 27 27 26 25 25 24 23 23 24 24 25 25 24 24 23 22 22 23 23 23 23 22
38 37 37 37 35 34 34 34 33 33 32 32 32 32 32 31 32 32 32 30 30 30 28 27 26 25 25 25 25 25 25 25 25 25 25 24 24 24 24 24 25 25 25 24
37 37 37 36 35 35 35 34 34 33 33 32 32 32 33 32 32 32 32 32 31 30 29 28 27 26 26 26 26 25 25 24 24 25 25 25 25 26 26 27 27 27 26 26
36 36 37 36 35 34 35 34 33 33 33 33 33 33 32 32 32 32 33 32 31 30 29 29 29 28 28 28 27 26 26 26 25 25 26 26 27 27 28 29 29 28 27 27
36 36 37 37 35 34 35 34 33 33 33 33 33 32 32 33 33 33 33 32 32 31 30 30 30 30 29 28 28 28 28 28 27 27 27 27 28 28 28 27 28 28 29 28
35 37 37 37 37 36 36 36 35 35 34 33 33 33 33 33 34 34 34 34 33 33 32 31 31 31 31 30 29 29 29 29 29 29 29 29 28 28 28 29 30 30 30 29
35 36 37 38 38 37 36 35 35 35 34 33 33 33 33 33 33 34 34 34 33 32 31 31 30 30 30 30 30 30 30 30 30 30 30 30 30 29 29 29 30 29 29 29
35 35 35 36 37 38 38 38 37 36 35 34 34 35 35 34 34 34 33 32 32 32 33 32 31 30 30 31 31 32 32 32 32 32 32 32 31 30 31 30 30 29 29 29
32 33 34 35 36 36 37 38 37 36 36 35 35 35 35 35 35 34 34 33 33 33 33 33 32 31 31 31 32 32 33 33 33 32 33 33 33 32 32 32 31 31 30 30
31 31 32 33 34 35 36 37 37 36 36 36 35 35 35 35 35 35 34 35 34 34 34 34 34 34 33 34 34 34 34 33 33 33 34 33 33 33 32 31 31 30 30 30
27 29 30 31 31 32 33 34 34 35 35 36 35 35 35 35 34 34 34 34 34 34 35 35 35 35 35 34 34 34 34 33 33 34 34 33 33 32 32 31 30 30 30 30
25 26 28 29 30 30 31 31 32 32 33 34 34 34 33 33 33 34 33 33 33 34 35 35 35 35 35 35 35 34 34 34 34 33 33 33 33 32 32 31 31 31 31 31
23 24 26 28 28 29 29 29 30 32 32 33 33 33 33 33 33 33 32 32 32 33 33 33 34 34 34 34 34 34 34 34 34 33 33 32 32 32 32 32 31 31 31 31
21 22 24 25 26 25 26 27 28 28 29 30 31 31 31 31 31 31 31 31 31 32 32 32 32 32 33 33 33 34 33 33 33 33 33 32 32 32 32 32 32 32 32 32
20 20 20 21 22 23 23 23 24 25 26 26 27 28 29 29 30 31 31 31 32 32 32 32 32 32 32 32 32 32 33 33 33 32 32 32 32 33 33 33 33 33 32 32
18 18 18 18 19 19 20 20 20 21 22 23 24 25 26 27 28 29 29 29 29 30 30 30 30 30 30 30 30 31 31 31 31 32 32 32 32 31 31 32 32 32 32 32
14 15 16 16 16 17 18 19 19 20 21 22 23 24 25 26 27 27 27 28 28 28 27 27 27 28 28 28 29 29 30 30 30 31 31 30 30 30 30 30 30 30 31 31
14 15 15 15 16 16 18 18 18 19 20 21 22 23 24 25 25 25 26 27 27 27 27 26 26 26 26 26 26 27 28 28 29 29 29 30 30 30 30 30 30 30 30 29

GEFSNGP_500_meanwind_246.txt.gz
Wind_Speed
36 34 33 34 33 31 31 29 28 26 26 25 23 22 21 20 20 20 19 19 18 18 18 18 17 17 16 16 16 16 15 15 15 15 14 14 13 13 12 11 11 12 12 12
38 37 35 35 34 33 32 31 29 28 27 26 25 24 23 21 21 20 20 20 19 19 19 19 19 18 18 18 18 17 17 16 16 16 15 15 15 14 13 13 12 12 13 13
37 37 38 38 36 34 33 32 31 29 28 27 26 25 24 23 23 22 22 21 21 21 20 20 20 20 20 19 19 19 19 18 17 17 17 17 15 14 14 14 13 13 14 14
36 38 39 38 36 35 34 33 31 30 29 28 27 27 26 26 25 24 23 23 23 23 22 22 22 22 21 21 21 21 20 19 18 18 18 17 16 16 15 15 16 16 16 16
37 37 37 38 37 35 34 34 33 31 30 29 28 28 27 26 26 25 24 24 24 24 24 23 23 22 22 22 23 23 22 21 20 20 20 19 18 18 18 18 18 19 18 18
38 37 37 37 36 35 34 35 33 32 31 30 29 28 27 27 27 26 25 25 24 24 24 24 23 24 24 23 23 23 22 22 23 23 22 21 21 21 20 20 20 21 20 20
39 38 37 37 36 35 35 34 32 32 31 30 30 29 28 28 28 27 26 25 24 24 25 25 24 24 23 23 23 23 23 23 23 24 23 22 22 22 21 22 22 22 21 21
39 38 37 37 36 35 35 34 33 32 31 31 30 29 29 29 29 27 25 25 24 24 25 25 25 24 23 23 23 24 24 24 24 24 23 22 23 23 23 23 24 23 23 23
39 38 37 37 36 35 34 34 33 33 31 31 30 30 29 29 28 27 27 26 26 26 26 26 25 24 24 24 24 24 25 25 24 23 23 24 24 24 24 24 24 24 24 24
38 38 38 37 36 36 34 33 33 33 32 31 31 30 30 29 29 29 29 28 27 27 28 27 27 26 25 25 25 25 26 26 25 25 24 25 25 25 25 25 26 26 26 26
36 37 37 37 36 36 35 34 33 33 32 32 32 31 30 30 30 30 30 30 29 29 28 28 28 28 27 26 26 27 27 27 26 26 26 27 27 27 27 27 28 28 27 26
36 36 36 35 35 35 35 34 33 33 33 33 33 32 31 31 31 31 31 31 31 31 30 29 30 29 29 28 28 29 28 28 29 28 28 29 29 29 29 30 29 28 28 27
36 36 35 35 35 34 34 34 34 34 33 33 33 33 32 32 32 32 32 32 32 31 31 30 29 29 29 30 30 30 30 30 31 30 30 31 31 30 30 30 29 28 28 28
35 35 35 34 34 34 34 34 34 34 33 32 33 33 33 32 32 32 32 32 33 33 32 31 30 30 30 30 30 31 31 31 31 31 31 31 31 30 31 30 30 30 29 29
35 34 34 33 33 34 34 34 34 34 33 33 33 32 32 31 32 32 32 32 32 33 33 32 32 31 31 31 31 32 33 33 32 31 31 31 31 31 31 30 31 31 31 31
34 33 33 33 33 34 34 34 34 34 34 34 34 33 32 32 32 33 33 34 34 34 34 34 34 34 34 34 33 34 33 33 33 32 32 33 32 32 32 32 32 33 32 32
31 32 32 33 33 33 33 34 33 33 34 34 34 34 33 33 33 33 34 35 35 36 36 35 35 35 35 35 35 34 34 33 32 32 32 33 33 34 34 33 33 33 33 33
29 29 30 31 31 32 33 33 33 33 34 34 34 34 35 34 34 34 34 35 35 36 36 36 36 36 35 35 35 34 34 34 34 33 33 34 34 34 34 34 34 33 32 33
26 27 28 29 30 31 32 32 32 33 33 34 34 34 35 35 34 34 35 35 35 35 35 35 35 35 35 34 34 34 34 34 34 33 33 34 34 34 34 34 33 33 32 32
25 26 27 28 29 30 30 31 32 33 33 33 33 33 33 34 35 35 35 35 35 35 35 35 35 35 35 35 34 34 33 33 33 33 33 33 33 33 33 33 33 32 32 32
24 25 25 26 27 28 29 29 31 32 32 32 33 33 33 33 34 34 34 34 34 35 35 35 35 34 34 34 34 33 32 32 33 33 33 33 33 33 33 33 33 33 33 33
20 22 23 24 24 25 26 27 28 29 30 31 32 32 32 32 32 33 32 33 33 34 34 34 34 34 34 34 35 34 33 33 33 33 33 33 33 33 33 33 33 33 32 33
19 20 20 21 22 23 23 25 25 26 27 28 29 30 30 31 31 31 32 32 33 33 34 34 33 33 33 34 34 34 34 33 33 33 32 32 33 33 33 33 32 32 32 32
17 18 19 20 20 20 21 22 23 24 25 26 27 28 28 29 30 31 31 31 31 32 32 32 32 32 32 32 32 32 32 32 31 31 31 32 32 33 33 32 32 32 32 32
16 16 17 17 18 19 20 20 20 21 22 23 24 25 26 27 28 29 29 29 29 29 29 29 30 30 30 31 31 31 31 30 30 30 31 31 32 32 32 32 32 32 32 33
14 14 15 15 15 16 18 19 20 20 21 22 23 24 24 25 26 27 27 27 27 27 27 28 28 29 29 29 29 29 30 30 30 30 30 31 31 31 31 32 32 32 32 33
14 14 14 15 15 16 17 17 18 19 20 20 21 22 23 23 24 24 25 25 25 26 26 26 27 27 27 27 27 27 28 28 28 29 29 29 30 30 30 30 31 31 31 31

GEFSNGP_500_meanwind_252.txt.gz
Wind_Speed
32 30 28 27 26 27 27 27 27 25 24 24 26 28 28 27 26 25 24 22 21 21 20 19 19 19 18 18 17 17 17 16 16 15 15 15 14 14 14 14 14 14 13 13
34 32 30 29 28 28 28 28 28 27 26 25 28 30 30 28 28 26 25 24 22 21 21 20 20 20 19 19 18 18 18 18 17 17 17 16 15 15 15 15 15 15 15 15
37 33 33 33 31 30 29 28 28 29 28 27 30 32 31 29 28 28 27 26 24 23 22 22 21 20 20 19 19 19 19 19 19 19 18 18 17 17 17 16 17 17 16 17
37 34 36 35 31 31 29 28 28 29 29 29 30 31 31 32 30 29 28 26 26 25 25 24 22 22 21 21 21 21 21 20 20 20 19 18 18 18 18 19 19 18 18 18
36 35 36 34 32 32 32 31 30 30 30 30 29 29 31 31 31 30 29 27 26 26 26 25 24 23 22 22 23 23 22 22 22 21 20 20 20 20 20 21 20 20 20 20
36 36 36 34 33 33 34 35 33 33 33 32 31 31 30 31 31 30 29 28 28 28 27 25 25 25 24 24 23 23 23 23 23 22 22 22 22 22 22 22 21 21 21 21
38 37 36 33 33 34 35 36 36 35 35 35 34 33 32 32 32 30 30 30 30 29 28 27 27 27 26 25 25 25 24 24 24 24 24 24 24 24 23 23 23 22 22 22
37 37 37 35 34 35 36 36 37 37 36 37 35 34 33 33 33 31 30 30 30 29 29 28 28 27 27 26 26 26 26 25 25 25 25 25 25 24 24 25 24 23 23 23
37 38 36 35 37 37 38 38 37 36 36 36 36 36 35 35 33 32 30 30 30 30 30 29 29 28 28 27 27 27 27 27 26 26 27 26 26 26 25 25 25 25 25 25
38 39 38 38 38 39 39 39 38 37 37 37 37 36 36 36 35 33 31 30 31 31 31 31 30 29 28 28 28 28 28 28 28 28 29 29 28 28 27 27 27 27 27 27
37 38 39 39 39 39 39 38 37 36 36 37 36 36 36 37 37 35 33 32 32 32 31 31 30 30 29 29 29 29 29 29 29 29 30 30 29 29 29 29 29 29 29 29
37 38 40 40 40 41 40 39 38 37 36 36 35 35 35 36 35 34 33 33 33 33 32 31 31 31 31 30 30 30 29 29 29 30 30 30 30 30 30 30 30 30 31 31
40 40 40 39 38 37 37 38 37 37 36 36 35 35 34 34 34 34 34 34 34 33 32 32 32 31 31 31 31 31 31 30 30 30 31 31 31 32 32 31 31 32 32 32
38 39 39 39 38 38 37 35 36 36 36 36 36 35 35 35 34 33 33 33 33 33 32 32 33 32 32 33 33 33 33 32 32 33 33 33 33 33 32 33 33 33 33 33
35 36 36 36 35 37 37 36 35 34 35 36 36 36 35 35 35 34 33 33 33 34 33 33 34 33 34 35 35 34 34 34 34 35 35 34 34 33 33 33 33 34 34 35
35 35 34 34 33 34 35 36 36 35 35 36 36 36 36 35 34 34 34 34 34 35 34 35 35 35 36 36 35 35 36 36 36 36 36 36 35 35 35 35 35 35 35 35
31 32 33 33 33 33 33 33 33 33 34 34 36 36 35 34 33 33 33 34 34 34 34 34 35 36 36 36 37 37 37 37 37 37 37 36 36 36 35 35 35 35 35 35
30 30 31 30 31 31 31 31 31 31 32 33 33 34 34 35 35 34 33 34 34 34 34 34 35 35 36 36 37 37 37 37 37 37 37 37 37 37 36 35 35 35 35 34
27 28 28 30 30 30 31 31 30 30 31 32 33 33 33 33 33 33 33 32 32 33 34 34 35 35 35 37 38 38 38 38 38 37 37 37 36 36 36 35 35 35 36 36
23 25 27 28 28 29 29 29 29 29 30 30 32 32 33 33 32 32 32 32 33 33 33 34 35 35 35 36 36 36 36 36 36 36 36 36 36 36 36 35 35 36 36 36
21 22 24 25 26 27 27 28 29 30 29 29 30 31 31 31 31 31 31 31 31 31 31 32 33 34 34 34 35 34 33 34 34 34 34 35 35 35 35 34 34 35 35 35
20 22 23 24 25 26 26 27 27 28 29 29 29 29 29 28 29 29 29 29 29 29 30 31 32 32 32 33 33 33 33 33 34 34 34 34 34 34 34 34 34 34 34 34
20 20 21 22 22 23 24 24 25 26 27 28 28 28 28 28 28 29 29 29 29 30 31 31 30 30 31 31 31 31 32 32 33 33 34 34 34 34 33 33 33 33 32 32
17 18 19 20 21 21 21 22 24 25 26 26 26 27 27 27 28 28 28 30 31 31 31 30 29 30 30 30 31 31 32 32 33 33 33 33 33 32 32 32 32 32 32 32
17 17 18 19 19 20 20 21 21 22 22 23 24 25 25 26 27 28 29 29 29 29 29 29 29 30 30 31 31 32 32 32 32 32 32 32 32 32 32 32 32 33 32 32
16 17 17 18 18 18 18 19 19 20 21 22 22 23 24 24 25 25 25 25 25 26 26 27 28 28 28 29 29 28 28 29 29 29 29 29 30 30 30 30 31 32 32 33
15 15 16 17 17 16 17 17 17 18 19 19 20 21 21 22 23 23 23 23 22 23 24 25 26 26 27 26 26 26 27 28 28 28 28 28 29 29 29 30 30 31 31 32